Select Page

2018-09-08/09 ETT Olympic e Sprint Viareggio

2018-09-08/09 ETT Olympic e Sprint Viareggio

2018-09-08/09
ETT Sprint e Olympic Viareggio

Viareggio (LU)

Triathlon Olimpico, 1.5 – 40 – 10K

Triathlon Sprint, 0.750 – 20 – 5K

WEBSITE

TRINEWS

TRIATHLON OLIMPICO

TOP 10
(complete)

DONNE
1 INGLETTO CHIARA ITA, FIRENZE TRI S3 2:22:17 0:30:28 1:11:01 0:40:49
2 SANTINI MICHELA ITA, WOMAN TRIATHLON ITAL S4 2:30:03 0:33:42 1:10:43 0:45:39
3 POLTRONIERI VALERIA ITA, BLACK BART S4 2:37:12 0:36:52 1:14:20 0:46:01
4 ANDORLINI CRISTINA ITA, FIRENZE TRI M3 2:55:07 0:37:18 1:25:27 0:52:23
5 PERROTTA DANIELA ITA, F.I.TRI S4 2:57:07 0:42:57 1:25:24 0:48:47
6 LUCHNIKOVA GANNA ITA, LC BRUGHERIO S4 3:02:25 0:44:52 1:18:07 0:59:27
7 DI PIETRO LETIZIA ITA, TRI EVOLUTION S4 3:04:22 0:42:46 1:26:05 0:55:32
8 BACCO ANNALISA ITA, TRIATHLON BERGAMO M3 3:06:20 0:41:45 1:25:36 0:58:59
9 PARESCHI MONICA ITA, PHISIO SPORT LAB TRI M3 3:09:17 0:44:22 1:27:31 0:57:24
10 DE SANTIS ELISABETTA ITA, PODISTICA SOLIDARIET M4 3:20:19 0:44:19 1:33:25 1:02:36

UOMINI
1 DEGASPERI ALESSANDRO ITA, DOLOMITICA NUOTO CTT S4 2:04:19 0:24:54 1:04:27 0:34:59
2 SALINI GABRIELE ITA, 707 S4 2:05:18 0:24:08 1:05:15 0:35:56
3 BARALLA FABRIZIO ITA, TRI TEAM SASSARI M1 2:07:26 0:24:52 1:04:34 0:38:00
4 SCARICA NICOLA ITA, CUS PARMA ASD S1 2:07:44 0:24:53 1:04:32 0:38:20
5 BORGIANNI LUCA ITA, G.S. FF.OO. S1 2:08:30 0:24:54 1:04:29 0:39:08
6 FERLAZZO ENRICO ITA, ASD SPEZIA TRIATHLO S2 2:10:20 0:24:15 1:05:02 0:41:05
7 DE STALES ANDREA ITA, A3 S3 2:12:08 0:27:08 1:06:41 0:38:20
8 GUZZI MICHAEL ITA, TRIATHLON BERGAMO S3 2:18:02 0:26:20 1:07:22 0:44:21
9 ZOMER DANIELE ITA, CUS TRENTO CTT S1 2:18:22 0:25:34 1:06:21 0:46:27
10 CROSTA STEFANO ITA, RHO TRIATHLON CLUB M3 2:18:34 0:27:20 1:09:00 0:42:15


Chiara Ingletto (Firenze Triathlon) centra la doppietta: vince l'ETT Viareggio 2018 sia su distanza olimpica sia su quella sprint

Chiara Ingletto (Firenze Triathlon) centra la doppietta: vince l’ETT Viareggio 2018 sia su distanza olimpica sia su quella sprint


TRIATHLON SPRINT

TOP 10
(complete)

DONNE
1 INGLETTO CHIARA ITA, FIRENZE TRI S3 1:07:28 0:13:15 0:35:24 0:18:50
2 SCHIANCHI FEDERICA ITA, PROPATRIA MILANO S1 1:08:09 0:15:04 0:32:43 0:20:23
3 SANTINI MICHELA ITA, WOMAN TRIATHLON ITAL S4 1:08:25 0:14:01 0:34:30 0:19:55
4 SILVESTRI CAMILLA ITA, TRI EVOLUTION S1 1:09:50 0:11:51 0:35:54 0:22:06
5 MATARAZZO MARINA ITA, NUOTO LIVORNO 3 M1 1:16:00 0:14:43 0:38:40 0:22:37
6 PASQUALI ANNA ITA, ASD SPEZIA TRIATHLO JU 1:16:15 0:14:40 0:38:37 0:22:59
7 TOGNINI SARA ITA, LA FENICE TRI S4 1:16:25 0:15:12 0:40:26 0:20:49
8 BERNARDINI SIMONETTA ITA, LIVORNO TRIATHLON M3 1:17:47 0:16:53 0:37:56 0:23:00
9 SCHIANCHI ANNALISA ITA, CUS PARMA ASD S2 1:18:37 0:14:15 0:39:07 0:25:16
10 ROMANI MAURA ITA, ESCAPE TUSCANY TRIAT M3 1:19:47 0:16:13 0:38:36 0:24:58

UOMINI
1 DEGASPERI ALESSANDRO ITA, DOLOMITICA NUOTO CTT S4 0:57:56 0:10:44 0:31:06 0:16:07
2 FERLAZZO ENRICO ITA, ASD SPEZIA TRIATHLO S2 0:58:04 0:10:37 0:31:07 0:16:21
3 SIMONIGH NICOLO’ ITA, ASD SPEZIA TRIATHLO S2 0:58:06 0:10:38 0:31:08 0:16:21
4 SALINI GABRIELE ITA, 707 S4 0:58:36 0:10:37 0:31:11 0:16:49
5 BORGIANNI LUCA ITA, G.S. FF.OO. S1 0:59:24 0:10:53 0:30:56 0:17:36
6 JERACI ALESSANDRO ITA, SPORT MANAGEMENT S4 1:01:43 0:12:06 0:32:23 0:17:14
7 BARALLA FABRIZIO ITA, TRI TEAM SASSARI M1 1:01:49 0:11:18 0:32:24 0:18:08
8 LEONARDI DANIELE ITA, ESSECI S2 1:01:52 0:12:01 0:32:37 0:17:15
9 ROVEDA TOMMASO ITA, G.S. FF.OO. JU 1:02:11 0:11:25 0:33:00 0:17:46
10 PAOLETTI TOMMASO ITA, FIRENZE TRI YB 1:02:18 0:11:30 0:32:54 0:17:55


Perché... #ioTRIamo!


SONO ARRIVATE LE NUOVE TRI-SHIRT, CANOTTE E FELPE TARGATE FCZ STYLE!
ENTRA NELLO SHOP FCZ E SCEGLI IL MODELLO, IL COLORE E LA SCRITTA CHE PREFERISCI!

TRI-SHIRT




About The Author

Barbara Cologni

Giornalista, nella sua vita ha sempre mosso un dito (per scrivere), ma mai un passo. Fino al 2013, quando, allenata da Daniel Fontana, ha tagliato il traguardo della sua prima mezza maratona, a Londra. Con il triathlon non è stato amore a prima vista, ma da qualche tempo, sui campi gara, in redazione e agli eventi, più di una persona l’ha sentita pronunciare il fatidico: #ioTRIamo!

Rispondi

Archivi

Categorie

%d blogger hanno fatto clic su Mi Piace per questo: